NOAA 16 DEB, 41266

Orbit data source: Space-Track

NOAA 16 DEB, 41266 is space debris in SSO originally from a launch on Thu, 21 Sep 2000 UTC launched from the Air Force Western Test Range (AFWTR). Debris objects in space refer to the collection of defunct objects orbiting the Earth. Examples of debris include non-operational satellites, rocket bodies, and fragments generated from explosions, collisions, or faulty payload assembly.

Loading next visibility...
Identifier
41266, 2000-055FS
Orbit
SSO
Last TLE update
20 hours ago
Origin
Manufacturer
Unknown
Mission
Spacecraft
Bus & Motor
Unknown
Mass
Unknown
Launch date (UTC)
2000-09-21 (25 years ago)
Launch vehicle
Unknown
Launch site
Air Force Western Test Range (AFWTR)
Object type
Payload
Rocket body
Debris
Shape & HBR
Unknown
Radar Cross Section
Small (<0.1 m²)

Expand to show TLE details & history

TLE from 20 hours ago
0 NOAA 16 DEB
1 41266U 00055FS  25181.44219139  .00002124  00000-0  92037-3 0  9992
2 41266  98.6722 246.1892 0002274   9.9169 350.2055 14.25330216490130
Epoch: 2025-06-30T10:36Z
TLE epoch observation values (Epoch: 2025-06-30T10:36:45.336Z)
Latitude
-0°
Longitude
168.24836°
Altitude
808.695 km
Speed
7.45 km/s
True Right ascension
16h 24m 45s
True Declination
0° 00' 00"
Sunlit
Object was in full shadow at epoch
Visualization orbit readout
Latitude
-23.02563°
Longitude
172.77352°
Altitude
814.585 km
Speed
7.446 km/s
Apparent Right ascension
13h 49m 59s
Apparent Declination
-66° 35' 16"
Sunlit
Object is in full shadow
Visualization observer readout
Local Sidereal Time
18:21:07
Azimuth
204.687° SW
Elevation
-28.269°
Doppler factor
1
Orbital elements
Apogee altitude
806.166 km
Perigee altitude
802.899 km
Semi-major axis
7,182.669 km
Eccentricity
0.00023
Inclination
98.6722°
RAAN
246.1892°
Arg. of periapsis
9.9169°
True anomaly
Unknown
Mean anomaly
350.2055°
Eccentric anomaly
Unknown
Mean motion
3.56545 °/min
Orbital period
100.97 mins
BSTAR
0.00092037
Loading maneuver chart data...
Loading SW <> Apogee altitude chart data...
Loading historical data...
Loading historical data...
Loading historical data...
Loading historical data...
Loading historical data...
Loading historical data...
Loading historical data...

NOAA 16 DEB Visibility forecast

Observer location: undefined°, undefined°

Span
Click to sort rows by Start time (UTC) header in descending order
Start Az.
Max El. time (UTC)
Max El. Az.
Max El.
End time (UTC)
End Az.
5 mins2025-07-01 15:52:17.012Z59.338° ENE2025-07-01 15:55:17.012Z95.013° ESE14.225°2025-07-01 15:57:17.012Z118.849° SE
9 mins2025-07-01 17:31:17.012Z4.661° NNE2025-07-01 17:35:17.012Z282.472° WNW42.217°2025-07-01 17:40:17.012Z206.399° SW
6 mins2025-07-02 03:13:17.012Z96.736° ESE2025-07-02 03:15:17.012Z65.879° ENE21.643°2025-07-02 03:19:17.012Z14.81° NNE
8 mins2025-07-02 04:51:17.012Z196.591° SSW2025-07-02 04:55:17.012Z274.162° WNW34.088°2025-07-02 04:59:17.012Z330.21° NNW
|